Voltar ao catálogo

ATLAS 5 CENTAUR DEB

AtivoHEO
NORAD 49340·DEBRIS·🇺🇸 United States

Lançado Oct 17, 2018 de Cape Canaveral Space Force Station

Loading…

Próximas Passagens (próximas 24 horas)

TLE

AtualizadoSource: Space-Track

Época: Sep 11, 2026, 06:04 UTC

1 49340U 18079ER  26254.25289421 -.00000172  00000-0  00000-0 0  9998
2 49340  13.8245  31.2646 4757370 314.0482  15.4004  1.76310484 32421

Acompanhe ATLAS 5 CENTAUR DEB em tempo real com AllMySat

Download on the App Store